Budapest Ferihegy, Hungary

12:29 AM CET on January 20, 2018 (GMT +0100)
Ferihegy

Weather History for LHBP - March, 2012

Change the Weather History Date:

Sunday, March 18, 2012

  Actual Average Record
Temperature  
Mean Temperature 50 °F -  
Max Temperature 69 °F 55 °F 69 °F (2012)
Min Temperature 32 °F 35 °F 23 °F (1998)
Degree Days  
Heating Degree Days 14    
Moisture  
Dew Point 35 °F    
Average Humidity 49    
Maximum Humidity 75    
Minimum Humidity 30    
Precipitation  
Precipitation 0.00 in - - ()
Sea Level Pressure  
Sea Level Pressure 30.07 in    
Wind  
Wind Speed 8 mph ()    
Max Wind Speed 20 mph    
Max Gust Speed 29 mph    
Averages and records for this station are not official NWS values.
T = Trace of Precipitation, MM = Missing Value Source: Averaged Metar Reports

Daily Weather History Graph

Daily Weather History Graph

Search for Another Location

Airport or City:

Trip Planner

Search our weather history database for the weather conditions in past years. The results will help you decide how hot, cold, wet, or windy it might be!

Date:

Astronomy

Mar. 18, 2012 Rise Set
Actual Time 5:49 AM CET 5:53 PM CET
Civil Twilight 5:18 AM CET 6:23 PM CET
Nautical Twilight 4:43 AM CET 6:59 PM CET
Astronomical Twilight 4:06 AM CET 7:36 PM CET
Moon 3:33 AM CET (3/18) 1:46 PM CET (3/18)
Length of Visible Light 13h 04m
Length of Day
12h 03m
Waning Crescent, 17% of the Moon is Illuminated
Mar 18
Waning Crescent
Mar 22
New
Mar 30
First Quarter
Apr 6
Full
Apr 13
Last Quarter

Hourly Weather History & Observations

Time (CET) Temp. Windchill Dew Point Humidity Pressure Visibility Wind Dir Wind Speed Gust Speed Precip Events Conditions
12:00 AM 44.6 °F 41.4 °F 28.4 °F 53% 30.09 in - East 5.8 mph - N/A   Clear
12:30 AM 46.4 °F 43.5 °F 26.6 °F 46% 30.09 in - SSE 5.8 mph - N/A   Clear
1:00 AM 50.0 °F - 28.4 °F 43% 30.09 in - South 6.9 mph - N/A   Clear
1:30 AM 51.8 °F - 28.4 °F 41% 30.09 in - South 8.1 mph - N/A   Clear
2:00 AM 48.2 °F - 26.6 °F 43% 30.09 in - SSE 4.6 mph - N/A   Clear
2:30 AM 39.2 °F 37.0 °F 26.6 °F 61% 30.09 in - Variable 3.5 mph - N/A   Clear
3:00 AM 39.2 °F 35.9 °F 26.6 °F 61% 30.09 in - SE 4.6 mph - N/A   Clear
3:30 AM 37.4 °F 33.8 °F 24.8 °F 60% 30.09 in - South 4.6 mph - N/A   Clear
4:00 AM 41.0 °F 39.0 °F 28.4 °F 61% 30.06 in - Variable 3.5 mph - N/A   Clear
4:30 AM 37.4 °F 34.9 °F 28.4 °F 70% 30.06 in - Variable 3.5 mph - N/A   Clear
5:00 AM 37.4 °F 33.8 °F 28.4 °F 70% 30.06 in - East 4.6 mph - N/A   Clear
5:30 AM 35.6 °F 30.7 °F 28.4 °F 75% 30.06 in - SE 5.8 mph - N/A   Clear
6:00 AM 32.0 °F 27.5 °F 24.8 °F 75% 30.09 in - South 4.6 mph - N/A   Clear
6:30 AM 39.2 °F 37.0 °F 30.2 °F 70% 30.09 in - Variable 3.5 mph - N/A   Clear
7:00 AM 42.8 °F 40.1 °F 33.8 °F 70% 30.09 in - ESE 4.6 mph - N/A   Clear
7:30 AM 48.2 °F - 33.8 °F 58% 30.09 in - East 4.6 mph - N/A   Clear
8:00 AM 51.8 °F - 37.4 °F 58% 30.09 in - SSW 8.1 mph - N/A   Clear
8:30 AM 53.6 °F - 37.4 °F 54% 30.09 in - SSW 11.5 mph - N/A   Clear
9:00 AM 57.2 °F - 37.4 °F 48% 30.09 in - SSW 11.5 mph - N/A   Clear
9:30 AM 59.0 °F - 37.4 °F 45% 30.09 in - SW 11.5 mph - N/A   Clear
10:00 AM 60.8 °F - 37.4 °F 42% 30.09 in - SW 12.7 mph - N/A   Clear
10:30 AM 60.8 °F - 37.4 °F 42% 30.09 in - SSW 12.7 mph - N/A   Clear
11:00 AM 64.4 °F - 37.4 °F 37% 30.09 in - SSW 13.8 mph - N/A   Clear
11:30 AM 64.4 °F - 37.4 °F 37% 30.09 in - SSW 15.0 mph - N/A   Clear
12:00 PM 66.2 °F - 37.4 °F 35% 30.09 in - SSW 15.0 mph - N/A   Clear
12:30 PM 66.2 °F - 37.4 °F 35% 30.06 in - SSW 19.6 mph - N/A   Clear
1:00 PM 68.0 °F - 35.6 °F 30% 30.06 in - SSW 17.3 mph - N/A   Clear
1:30 PM 68.0 °F - 35.6 °F 30% 30.06 in - SW 18.4 mph - N/A   Clear
2:00 PM 69.8 °F - 39.2 °F 33% 30.06 in - SW 16.1 mph - N/A   Clear
2:30 PM 69.8 °F - 37.4 °F 31% 30.04 in - SSW 16.1 mph 28.8 mph N/A   Clear
3:00 PM 68.0 °F - 39.2 °F 35% 30.04 in - SW 18.4 mph - N/A   Clear
3:30 PM 66.2 °F - 39.2 °F 37% 30.04 in - WSW 18.4 mph - N/A   Clear
4:00 PM 64.4 °F - 41.0 °F 42% 30.04 in - WSW 19.6 mph - N/A   Clear
4:30 PM 64.4 °F - 41.0 °F 42% 30.04 in - WSW 10.4 mph - N/A   Clear
5:00 PM 62.6 °F - 41.0 °F 45% 30.04 in - SW 12.7 mph - N/A   Clear
5:30 PM 62.6 °F - 41.0 °F 45% 30.04 in - SW 12.7 mph - N/A   Clear
6:00 PM 60.8 °F - 41.0 °F 48% 30.04 in - SW 10.4 mph - N/A   Clear
6:30 PM 60.8 °F - 39.2 °F 45% 30.04 in - WSW 8.1 mph - N/A   Clear
7:00 PM 59.0 °F - 39.2 °F 48% 30.04 in - SW 10.4 mph - N/A   Clear
7:30 PM 59.0 °F - 39.2 °F 48% 30.04 in - SSW 9.2 mph - N/A   Clear
8:00 PM 59.0 °F - 37.4 °F 45% 30.04 in - SSW 9.2 mph - N/A   Clear
8:30 PM 57.2 °F - 37.4 °F 48% 30.04 in - South 9.2 mph - N/A   Clear
9:00 PM 55.4 °F - 37.4 °F 51% 30.04 in - SSW 10.4 mph - N/A   Clear
10:00 PM 55.4 °F - 37.4 °F 51% 30.04 in - SSW 10.4 mph - N/A   Clear
10:30 PM 53.6 °F - 37.4 °F 54% 30.04 in - South 9.2 mph - N/A   Clear
11:00 PM 53.6 °F - 37.4 °F 54% 30.04 in - SSW 8.1 mph - N/A   Clear
11:30 PM 51.8 °F - 37.4 °F 58% 30.04 in - South 5.8 mph - N/A   Clear